Training

Spin Video   We captured this 11 turn spin one day while out enjoying a flight in the Super Decathlon. Our advanced stall and spin class generally does 2-3 turn … [Read More...]

Weather

METAR FOR KCHA (Issued: Sun, August 2nd 2015 9:53 AM UTC):
KCHA 020953Z 00000KT 10SM SCT150 20/18 A2997 RMK AO2 SLP139 FIRST T02000178

Accomplishments

Congratulations

Congratulations, Ray Sikich who soloed in N68810 on June 3, 2015 … [Read More...]

Congratulations

Congratulations to Bobby Fitzu, for soloing on May 8, 2015 … [Read More...]

Dallas Bay Skypark - 1A0